TimeEDT,TemperatureF,Dew PointF,Humidity,Sea Level PressureIn,VisibilityMPH,Wind Direction,Wind SpeedMPH,Gust SpeedMPH,PrecipitationIn,Events,Conditions,WindDirDegrees,DateUTC
12:53 AM,39.0,30.9,73,30.21,10.0,NNW,8.1,-,N/A,,Scattered Clouds,340,2012-10-28 04:53:00
1:53 AM,39.0,30.9,73,30.20,10.0,North,11.5,-,N/A,,Clear,350,2012-10-28 05:53:00
2:53 AM,39.9,30.0,68,30.19,10.0,North,11.5,-,N/A,,Clear,350,2012-10-28 06:53:00
3:53 AM,39.9,30.0,68,30.19,10.0,North,10.4,-,N/A,,Clear,360,2012-10-28 07:53:00
4:53 AM,42.1,30.0,62,30.18,10.0,North,13.8,-,N/A,,Overcast,350,2012-10-28 08:53:00
5:53 AM,42.1,30.0,62,30.18,10.0,North,12.7,-,N/A,,Overcast,350,2012-10-28 09:53:00
6:53 AM,39.9,30.0,68,30.17,10.0,North,12.7,-,N/A,,Partly Cloudy,350,2012-10-28 10:53:00
7:53 AM,39.9,30.9,70,30.17,10.0,NNW,13.8,-,N/A,,Clear,340,2012-10-28 11:53:00
8:53 AM,42.1,32.0,67,30.20,10.0,North,10.4,-,N/A,,Overcast,350,2012-10-28 12:53:00
9:53 AM,44.1,33.1,65,30.19,10.0,North,12.7,-,N/A,,Overcast,360,2012-10-28 13:53:00
10:53 AM,48.0,35.1,61,30.17,10.0,NNE,20.7,26.5,N/A,,Mostly Cloudy,20,2012-10-28 14:53:00
11:53 AM,50.0,33.1,52,30.17,10.0,NNE,18.4,29.9,N/A,,Overcast,20,2012-10-28 15:53:00
1:53 PM,52.0,30.9,45,30.12,10.0,NNE,21.9,31.1,N/A,,Partly Cloudy,30,2012-10-28 17:53:00
2:53 PM,48.9,30.0,48,30.13,10.0,NNE,23.0,26.5,N/A,,Scattered Clouds,20,2012-10-28 18:53:00
3:53 PM,48.0,30.0,50,30.13,10.0,NNE,20.7,28.8,N/A,,Partly Cloudy,30,2012-10-28 19:53:00
4:53 PM,48.0,28.0,46,30.11,10.0,NNE,21.9,28.8,N/A,,Clear,20,2012-10-28 20:53:00
5:53 PM,46.9,28.0,48,30.13,10.0,NNE,19.6,25.3,N/A,,Mostly Cloudy,20,2012-10-28 21:53:00
6:53 PM,46.0,28.0,50,30.14,10.0,North,23.0,29.9,N/A,,Mostly Cloudy,360,2012-10-28 22:53:00
7:53 PM,45.0,27.0,49,30.14,10.0,North,12.7,-,N/A,,Partly Cloudy,350,2012-10-28 23:53:00
8:53 PM,45.0,27.0,49,30.14,10.0,North,16.1,24.2,N/A,,Mostly Cloudy,360,2012-10-29 00:53:00
9:53 PM,45.0,28.9,53,30.12,10.0,North,16.1,25.3,N/A,,Overcast,360,2012-10-29 01:53:00
10:53 PM,45.0,28.9,53,30.12,10.0,North,11.5,26.5,N/A,,Overcast,360,2012-10-29 02:53:00
11:53 PM,45.0,28.9,53,30.11,10.0,North,15.0,21.9,N/A,,Overcast,350,2012-10-29 03:53:00